Location: Jaite
(41.2884°N, 81.5737°W)
Time: 00:53:06
(UTC+00:00)

Cosmos 2263 Rocket - Pass Details

Date: 18 January 2020
Orbit: 822 x 849 km, 71.0° (Epoch: 28 February)

Event Time Altitude Azimuth Distance (km) Brightness Sun altitude
Exits shadow 11:26:17 - 342° (NNW) 3,258 4.9 -15.3°
Reaches altitude 10° 11:28:31 10° 349° (N) 2,457 4.4 -14.9°
Maximum altitude 11:33:51 42° 60° (ENE) 1,184 3.3 -13.9°
Drops below altitude 10° 11:39:11 10° 131° (SE) 2,460 5.7 -12.9°
Sets 11:41:45 0° 138° (SE) 3,394 6.4 -12.5°
